BMCB-7 Weather Reports


Display with metric or nautical units.
time (UTC)temp
F
wind
direction
speed
MPH
gust
MPH
rain 1hr
in
rain 24hr
in
rain mn
in
humidity
%
barometer
mb
20260510075048 54 30 6.0 10.0 0.00 0.00 0.00 79 1012.6
20260510074023 53 28 6.0 9.0 0.00 0.00 0.00 79 1012.6
20260510073023 53 31 6.0 9.0 0.00 0.00 0.00 80 1012.7
20260510072045 52 33 6.0 11.0 0.00 0.00 0.00 81 1012.7
20260510071047 52 27 5.0 10.0 0.00 0.00 0.00 81 1012.7
20260510070046 52 19 5.0 10.0 0.00 0.00 0.00 82 1012.7
20260510064045 51 10 7.0 10.0 0.00 0.00 0.00 82 1012.6
20260510063047 51 9 6.0 10.0 0.00 0.00 0.00 83 1012.6
20260510062049 50 11 6.0 8.0 0.00 0.00 0.00 84 1012.6
20260510061047 50 14 5.0 8.0 0.00 0.00 0.00 83 1012.6
20260510060023 50 11 4.0 7.0 0.00 0.00 0.00 83 1012.7
20260510055048 51 12 4.0 7.0 0.00 0.00 0.00 81 1012.7
20260510054022 51 9 3.0 6.0 0.00 0.00 0.00 80 1012.8
20260510052023 50 29 3.0 5.0 0.00 0.00 0.00 81 1012.8
20260510051021 50 28 3.0 4.0 0.00 0.00 0.00 81 1012.8
20260510050022 50 28 4.0 5.0 0.00 0.00 0.00 81 1012.7
20260510045023 50 22 3.0 5.0 0.00 0.00 0.00 82 1012.8
20260510044022 50 22 3.0 5.0 0.00 0.00 0.00 81 1012.8
20260510043040 50 27 3.0 5.0 0.00 0.00 0.00 80 1012.8
20260510042040 50 26 3.0 6.0 0.00 0.00 0.00 80 1012.9
20260510041022 50 22 2.0 4.0 0.00 0.00 0.00 80 1012.9
20260510040022 51 19 2.0 3.0 0.00 0.00 0.00 79 1012.8
20260510035048 51 32 3.0 4.0 0.00 0.00 0.00 80 1012.9
20260510034022 51 32 3.0 4.0 0.00 0.00 0.00 79 1013.1
20260510033048 51 1 1.0 3.0 0.00 0.00 0.00 79 1013.1
20260510031047 51 38 3.0 5.0 0.00 0.00 0.00 78 1013.2
20260510030047 51 36 3.0 5.0 0.00 0.00 0.00 77 1013.3
20260510025046 52 39 4.0 7.0 0.00 0.00 0.00 75 1013.2
20260510024046 51 77 3.0 6.0 0.00 0.00 0.00 75 1013.2
20260510023043 51 43 3.0 6.0 0.00 0.00 0.00 75 1013.3
20260510022046 52 33 4.0 7.0 0.00 0.00 0.00 74 1013.2
20260510021046 52 47 3.0 6.0 0.00 0.00 0.00 74 1013.3
20260510020046 52 45 3.0 5.0 0.00 0.00 0.00 74 1013.4
20260510015046 52 36 4.0 6.0 0.00 0.00 0.00 74 1013.3
20260510014046 51 33 4.0 7.0 0.00 0.00 0.00 74 1013.6
20260510013044 51 35 4.0 6.0 0.00 0.00 0.00 75 1013.7
20260510012046 51 19 4.0 6.0 0.00 0.00 0.00 76 1013.7
20260510010043 51 14 4.0 5.0 0.00 0.00 0.00 77 1013.8
20260510005043 51 23 4.0 5.0 0.00 0.00 0.00 76 1014.0
20260510004045 51 24 4.0 6.0 0.00 0.00 0.00 77 1014.0
20260510003044 51 23 4.0 6.0 0.00 0.00 0.00 76 1014.1
20260510002046 51 21 4.0 5.0 0.00 0.00 0.00 75 1014.1
20260510001046 52 28 4.0 6.0 0.00 0.00 0.00 74 1014.2
20260510000049 52 40 4.0 7.0 0.00 0.00 0.00 75 1014.2
20260509234050 52 36 4.0 6.0 0.00 0.00 0.00 74 1014.2
20260509233049 52 19 4.0 6.0 0.00 0.00 0.00 74 1014.2
20260509232050 53 12 4.0 7.0 0.00 0.00 0.00 73 1014.2
20260509231051 52 19 4.0 6.0 0.00 0.00 0.00 73 1014.4
20260509225052 53 27 4.0 5.0 0.00 0.00 0.00 73 1014.5
20260509224053 53 45 4.0 7.0 0.00 0.00 0.00 72 1014.5
20260509223051 53 48 4.0 7.0 0.00 0.00 0.00 72 1014.5
20260509222054 53 40 4.0 7.0 0.00 0.00 0.00 72 1014.6
20260509221053 54 36 4.0 6.0 0.00 0.00 0.00 70 1014.5
20260509220051 54 34 5.0 6.0 0.00 0.00 0.00 71 1014.6
20260509215057 54 34 5.0 6.0 0.00 0.00 0.00 71 1014.6
20260509214056 54 42 5.0 8.0 0.00 0.00 0.00 71 1014.6
20260509213054 55 39 5.0 8.0 0.00 0.00 0.00 70 1014.6
20260509212055 55 39 5.0 8.0 0.00 0.00 0.00 69 1014.6
20260509211056 55 36 5.0 8.0 0.00 0.00 0.00 68 1014.6
20260509210054 55 30 5.0 8.0 0.00 0.00 0.00 68 1014.5
20260509204055 56 22 5.0 9.0 0.00 0.00 0.00 66 1014.6
20260509203056 57 28 5.0 8.0 0.00 0.00 0.00 65 1014.6
20260509202056 57 28 5.0 8.0 0.00 0.00 0.00 65 1014.6
20260509201056 57 28 5.0 8.0 0.00 0.00 0.00 64 1014.6
20260509200056 58 20 5.0 9.0 0.00 0.00 0.00 64 1014.5
20260509195055 58 28 6.0 12.0 0.00 0.00 0.00 63 1014.4
20260509194052 59 30 7.0 10.0 0.00 0.00 0.00 62 1014.3
20260509193058 59 30 7.0 10.0 0.00 0.00 0.00 62 1014.1
20260509192054 59 28 7.0 12.0 0.00 0.00 0.00 61 1014.1
20260509191054 60 23 7.0 11.0 0.00 0.00 0.00 59 1014.0
20260509190056 60 24 6.0 10.0 0.00 0.00 0.00 59 1014.0
20260509185055 61 27 7.0 14.0 0.00 0.00 0.00 59 1013.9
20260509184052 62 23 7.0 12.0 0.00 0.00 0.00 58 1013.9
20260509183055 62 26 8.0 14.0 0.00 0.00 0.00 58 1013.8
20260509181051 63 27 7.0 12.0 0.00 0.00 0.00 57 1013.5
20260509180053 64 26 5.0 9.0 0.00 0.00 0.00 56 1013.4
20260509175051 64 23 7.0 12.0 0.00 0.00 0.00 56 1013.3
20260509174053 64 29 7.0 13.0 0.00 0.00 0.00 56 1013.4
20260509173053 64 18 7.0 11.0 0.00 0.00 0.00 55 1013.6
20260509171051 66 27 7.0 13.0 0.00 0.00 0.00 52 1013.2
20260509170051 66 39 7.0 11.0 0.00 0.00 0.00 51 1013.1
20260509165050 66 36 7.0 10.0 0.00 0.00 0.00 51 1013.0
20260509164050 67 63 6.0 12.0 0.00 0.00 0.00 50 1013.0
20260509163050 67 63 5.0 12.0 0.00 0.00 0.00 49 1013.0
20260509162051 67 55 6.0 12.0 0.00 0.00 0.00 50 1013.0
20260509161051 68 49 6.0 10.0 0.00 0.00 0.00 48 1013.0
20260509153048 68 39 6.0 11.0 0.00 0.00 0.00 48 1013.3
20260509152053 68 53 5.0 8.0 0.00 0.00 0.00 46 1013.4
20260509151049 68 51 6.0 9.0 0.00 0.00 0.00 48 1013.6
20260509150049 69 5 4.0 9.0 0.00 0.00 0.00 47 1013.5
20260509144045 68 28 5.0 9.0 0.00 0.00 0.00 47 1013.6
20260509143048 68 72 4.0 8.0 0.00 0.00 0.00 47 1013.7
20260509142048 67 70 4.0 7.0 0.00 0.00 0.00 48 1013.9
20260509141052 68 70 4.0 9.0 0.00 0.00 0.00 46 1013.9
20260509133049 67 291 5.0 11.0 0.00 0.00 0.00 46 1014.3
20260509132047 68 57 4.0 10.0 0.00 0.00 0.00 47 1014.4
20260509131047 68 46 3.0 9.0 0.00 0.00 0.00 47 1014.4
20260509130046 68 11 5.0 10.0 0.00 0.00 0.00 47 1014.5
20260509124047 67 357 4.0 10.0 0.00 0.00 0.00 46 1014.8
20260509123048 67 45 4.0 9.0 0.00 0.00 0.00 45 1014.8
20260509122046 69 23 6.0 9.0 0.00 0.00 0.00 46 1014.9
20260509121048 67 272 6.0 10.0 0.00 0.00 0.00 43 1015.0
20260509115048 67 87 4.0 9.0 0.00 0.00 0.00 46 1015.2
20260509114047 67 1 3.0 9.0 0.00 0.00 0.00 46 1015.4
20260509113050 67 63 5.0 9.0 0.00 0.00 0.00 46 1015.5
20260509112045 66 40 4.0 9.0 0.00 0.00 0.00 47 1015.6
20260509111049 66 77 4.0 10.0 0.00 0.00 0.00 47 1015.7
20260509110046 66 102 4.0 8.0 0.00 0.00 0.00 49 1015.8
20260509104046 66 76 5.0 10.0 0.00 0.00 0.00 50 1015.9
20260509103047 66 94 5.0 11.0 0.00 0.00 0.00 49 1016.0
20260509102047 66 79 4.0 8.0 0.00 0.00 0.00 50 1016.0
20260509101048 65 81 5.0 9.0 0.00 0.00 0.00 52 1016.1
20260509100047 64 307 5.0 10.0 0.00 0.00 0.00 51 1016.1
20260509095047 64 83 5.0 12.0 0.00 0.00 0.00 52 1016.2
20260509094045 64 79 6.0 11.0 0.00 0.00 0.00 52 1016.2
20260509093037 64 80 6.0 10.0 0.00 0.00 0.00 55 1016.2
20260509092023 63 93 5.0 9.0 0.00 0.00 0.00 58 1016.2
20260509091023 62 81 5.0 9.0 0.00 0.00 0.00 59 1016.3
20260509090043 62 82 5.0 10.0 0.00 0.00 0.00 61 1016.4
20260509085041 61 87 5.0 8.0 0.00 0.00 0.00 63 1016.4
20260509084044 61 81 5.0 8.0 0.00 0.00 0.00 64 1016.5
20260509083037 60 91 4.0 7.0 0.00 0.00 0.00 64 1016.6
20260509082044 60 73 3.0 6.0 0.00 0.00 0.00 66 1016.7
20260509081039 59 258 4.0 6.0 0.00 0.00 0.00 68 1016.8
20260509080023 58 95 4.0 7.0 0.00 0.00 0.00 69 1016.9